CST,Max TemperatureF,Mean TemperatureF,Min TemperatureF,Max Dew PointF,MeanDew PointF,Min DewpointF,Max Humidity, Mean Humidity, Min Humidity, Max Sea Level PressureIn, Mean Sea Level PressureIn, Min Sea Level PressureIn, Max VisibilityMiles, Mean VisibilityMiles, Min VisibilityMiles, Max Wind SpeedMPH, Mean Wind SpeedMPH, Max Gust SpeedMPH,PrecipitationIn, CloudCover, Events, WindDirDegrees
2014-2-1,24,19,14,19,14,9,88,81,73,30.20,29.99,29.90,10,4,0,17,6,22,0.36,7,Fog-Snow,11
2014-2-2,16,2,-13,8,-5,-18,79,71,63,30.39,30.35,30.22,10,10,7,17,6,22,0.00,1,,294
2014-2-3,21,0,-22,3,-9,-26,79,62,45,30.45,30.41,30.38,10,10,7,8,1,8,0.00,0,,154
2014-2-4,19,11,2,14,8,-4,84,68,51,30.43,30.30,30.15,10,5,1,14,7,20,0.20,7,Snow,50
2014-2-5,18,9,0,14,7,-9,84,76,68,30.57,30.33,30.11,10,4,1,21,13,26,0.13,7,Snow,324
2014-2-6,5,-2,-10,-6,-10,-15,82,71,60,30.59,30.53,30.47,10,10,10,17,10,23,0.00,0,,264
2014-2-7,13,2,-10,0,-6,-14,79,66,53,30.48,30.41,30.34,10,10,10,16,5,21,0.00,2,,221
2014-2-8,18,14,9,14,9,0,84,74,63,30.32,30.20,30.11,10,4,0,10,3,13,0.10,8,Fog-Snow,157
2014-2-9,18,9,-1,12,1,-10,91,76,61,30.42,30.29,30.19,10,7,4,22,9,26,0.00,1,,295
2014-2-10,7,-4,-16,-6,-11,-19,81,68,55,30.57,30.51,30.42,10,10,7,12,6,15,0.00,0,,282
2014-2-11,11,-5,-22,-4,-13,-28,86,68,50,30.60,30.50,30.36,10,9,4,10,3,12,0.00,0,,167
2014-2-12,25,13,0,12,5,-8,69,58,46,30.35,30.17,29.99,10,10,10,10,5,13,0.00,7,,179
2014-2-13,39,28,16,28,14,6,70,64,57,29.99,29.76,29.60,10,9,6,26,13,37,T,2,,234
2014-2-14,19,12,4,9,6,-1,84,73,61,30.09,29.86,29.74,10,7,0,21,10,25,0.07,4,Fog-Snow,315
2014-2-15,20,7,-7,15,6,-11,86,71,56,30.14,30.03,29.93,10,7,0,13,5,15,0.08,5,Fog-Snow,181
2014-2-16,28,23,18,15,13,12,84,72,60,30.27,30.17,29.96,9,7,5,17,9,22,0.00,5,,352
2014-2-17,35,28,21,28,22,13,100,84,68,30.19,29.87,29.73,10,3,0,23,14,29,0.59,7,Fog-Snow,164
2014-2-18,49,30,11,30,24,9,92,67,42,29.95,29.76,29.63,10,10,3,24,9,32,0.00,0,,225
2014-2-19,42,33,24,30,27,23,85,70,55,29.97,29.91,29.77,10,10,7,17,8,23,0.01,1,Rain,218
2014-2-20,47,40,33,43,34,28,100,88,75,29.78,29.45,29.14,10,4,0,38,18,47,1.29,8,Fog-Rain-Snow-Thunderstorm,109
2014-2-21,38,31,24,28,20,14,81,63,44,29.89,29.72,29.42,10,9,2,35,18,45,T,4,Snow,261
2014-2-22,33,26,18,20,13,6,88,64,39,30.16,30.05,29.91,10,10,10,15,7,21,0.00,1,,293
2014-2-23,27,22,16,9,7,5,67,52,36,30.34,30.29,30.17,10,10,10,18,11,25,0.00,0,,306
2014-2-24,26,21,15,11,7,3,67,54,40,30.40,30.34,30.29,10,8,1,16,9,22,0.01,4,Snow,304
2014-2-25,16,11,5,11,3,-4,80,67,53,30.38,30.33,30.28,10,8,2,25,13,32,0.01,3,Snow,302
2014-2-26,22,10,-3,8,-4,-11,69,57,45,30.40,30.13,29.80,10,10,6,30,15,39,0.00,0,,270
2014-2-27,18,9,0,-1,-9,-12,69,54,38,30.23,30.15,29.88,10,10,10,29,11,37,0.00,0,,316
2014-2-28,35,18,1,20,8,-7,75,58,41,30.19,30.05,29.94,10,10,10,21,8,26,0.00,2,,119